{"data":{"norad_id":49440,"epoch":"2026-05-24T15:58:07.436640Z","epoch_age_seconds":97150,"freshness":"FRESH","line1":"1 49440U 21104AJ  26144.66536385 -.00003384  00000+0 -19454-3 0  9993","line2":"2 49440  53.2158 228.0535 0000850  94.6995 265.4094 15.08861058250387","mean_motion":15.08861058,"eccentricity":8.5e-5,"inclination_deg":53.2158,"raan_deg":228.0535,"arg_perigee_deg":94.6995,"mean_anomaly_deg":265.4094,"bstar":-0.00019454,"rev_number":25038,"period_min":95.436222730059,"perigee_km":539.09100946905,"apogee_km":540.2670381931,"semimajor_km":6917.8160238311,"source":"CELESTRAK","updated_at":"2026-05-25T13:38:16.801374Z"}}